Hobbs, NM

1:30 PM MDT on September 26, 2016 (GMT -0600)
Lea County Regional

Weather History for KHOB - September, 2013

Change the Weather History Date:

Thursday, September 5, 2013

  Actual Average Record
Temperature  
Mean Temperature 75 °F -  
Max Temperature 91 °F 88 °F 102 °F (1948)
Min Temperature 59 °F 62 °F 52 °F (1953)
Cooling Degree Days 10    
Growing Degree Days 25 (Base 50)    
Moisture  
Dew Point 46 °F    
Average Humidity 37    
Maximum Humidity 63    
Minimum Humidity 15    
Precipitation  
Precipitation 0.00 in - - ()
Sea Level Pressure  
Sea Level Pressure 30.20 in    
Wind  
Wind Speed 4 mph (ENE)    
Max Wind Speed 12 mph    
Max Gust Speed 18 mph    
Visibility 10 miles    
Events      
Averages and records for this station are not official NWS values.
T = Trace of Precipitation, MM = Missing Value Source: NWS Daily Summary

Daily Weather History Graph

Daily Weather History Graph

Search for Another Location

Airport or City:

Trip Planner

Search our weather history database for the weather conditions in past years. The results will help you decide how hot, cold, wet, or windy it might be!

Date:

Astronomy

Sep. 05, 2013 Rise Set
Actual Time 6:30 AM MDT 7:11 PM MDT
Civil Twilight 6:05 AM MDT 7:36 PM MDT
Nautical Twilight 5:36 AM MDT 8:06 PM MDT
Astronomical Twilight 5:05 AM MDT 8:36 PM MDT
Moon 6:40 AM MDT (9/5) 7:10 PM MDT (9/5)
Length of Visible Light 13h 31m
Length of Day
12h 41m
New Moon, 0% of the Moon is Illuminated
Sep 5
New Moon
Sep 12
First Quarter
Sep 19
Full
Sep 26
Last Quarter
Oct 4
New

Hourly Weather History & Observations

Time (MDT) Temp. Heat Index Dew Point Humidity Pressure Visibility Wind Dir Wind Speed Gust Speed Precip Events Conditions
12:15 AM 69.8 °F - 41.0 °F 35% 30.21 in 10.0 mi ESE 3.5 mph - N/A   Clear
12:35 AM 69.8 °F - 41.0 °F 35% 30.22 in 10.0 mi Calm Calm - N/A   Clear
12:55 AM 66.2 °F - 41.0 °F 40% 30.21 in 10.0 mi Calm Calm - N/A   Clear
1:15 AM 66.2 °F - 41.0 °F 40% 30.21 in 10.0 mi Calm Calm - N/A   Clear
1:35 AM 66.2 °F - 41.0 °F 40% 30.21 in 10.0 mi Calm Calm - N/A   Clear
1:55 AM 64.4 °F - 41.0 °F 42% 30.21 in 10.0 mi Calm Calm - N/A   Clear
2:15 AM 62.6 °F - 41.0 °F 45% 30.21 in 10.0 mi NW 5.8 mph - N/A   Clear
2:35 AM 62.6 °F - 41.0 °F 45% 30.21 in 10.0 mi NNW 5.8 mph - N/A   Clear
2:55 AM 62.6 °F - 41.0 °F 45% 30.20 in 10.0 mi NNW 4.6 mph - N/A   Clear
3:15 AM 62.6 °F - 41.0 °F 45% 30.20 in 10.0 mi NNW 3.5 mph - N/A   Clear
3:35 AM 60.8 °F - 41.0 °F 48% 30.20 in 10.0 mi NW 4.6 mph - N/A   Clear
3:55 AM 60.8 °F - 41.0 °F 48% 30.20 in 10.0 mi North 3.5 mph - N/A   Clear
4:15 AM 62.6 °F - 41.0 °F 45% 30.20 in 10.0 mi Calm Calm - N/A   Clear
4:35 AM 62.6 °F - 41.0 °F 45% 30.20 in 10.0 mi Calm Calm - N/A   Clear
4:55 AM 62.6 °F - 42.8 °F 48% 30.20 in 10.0 mi Calm Calm - N/A   Clear
5:50 AM 59.0 °F - 46.4 °F 63% 30.22 in 10.0 mi NNW 6.9 mph - N/A   Clear
6:50 AM 60.8 °F - 46.4 °F 59% 30.22 in 10.0 mi WNW 4.6 mph - N/A   Clear
7:50 AM 71.6 °F - 51.8 °F 50% 30.23 in 10.0 mi Calm Calm - N/A   Clear
8:50 AM 78.8 °F - 53.6 °F 42% 30.24 in 10.0 mi South 4.6 mph - N/A   Clear
9:50 AM 82.4 °F 81.7 °F 55.4 °F 39% 30.25 in 10.0 mi SSE 5.8 mph - N/A   Clear
10:50 AM 86.0 °F - 50.0 °F 29% 30.26 in 10.0 mi SSE 11.5 mph - N/A   Clear
11:50 AM 87.8 °F - 48.2 °F 25% 30.24 in 10.0 mi SE 9.2 mph - N/A   Partly Cloudy
12:50 PM 89.6 °F - 46.4 °F 22% 30.22 in 10.0 mi SE 11.5 mph - N/A   Scattered Clouds
1:50 PM 91.4 °F - 42.8 °F 18% 30.21 in 10.0 mi NE 10.4 mph 18.4 mph N/A   Partly Cloudy
2:50 PM 91.4 °F - 37.4 °F 15% 30.19 in 10.0 mi East 9.2 mph 17.3 mph N/A   Clear
3:50 PM 91.4 °F - 39.2 °F 16% 30.17 in 10.0 mi East 8.1 mph 17.3 mph N/A   Clear
4:50 PM 91.4 °F - 39.2 °F 16% 30.16 in 10.0 mi NNE 10.4 mph 16.1 mph N/A   Partly Cloudy
5:50 PM 89.6 °F - 41.0 °F 18% 30.15 in 10.0 mi NE 11.5 mph 17.3 mph N/A   Partly Cloudy
6:15 PM 89.6 °F - 42.8 °F 20% 30.15 in 10.0 mi East 9.2 mph - N/A   Clear
6:35 PM 87.8 °F - 44.6 °F 22% 30.15 in 10.0 mi ENE 8.1 mph - N/A   Clear
6:55 PM 86.0 °F - 44.6 °F 23% 30.15 in 10.0 mi NE 8.1 mph - N/A   Clear
7:15 PM 84.2 °F - 44.6 °F 25% 30.16 in 10.0 mi ENE 6.9 mph - N/A   Clear
7:35 PM 82.4 °F - 44.6 °F 26% 30.16 in 10.0 mi NE 5.8 mph - N/A   Clear
7:55 PM 80.6 °F - 44.6 °F 28% 30.16 in 10.0 mi NE 5.8 mph - N/A   Clear
8:15 PM 78.8 °F - 44.6 °F 30% 30.17 in 10.0 mi ENE 6.9 mph - N/A   Clear
8:35 PM 78.8 °F - 46.4 °F 32% 30.18 in 10.0 mi ENE 8.1 mph - N/A   Clear
8:55 PM 78.8 °F - 48.2 °F 34% 30.19 in 10.0 mi ENE 6.9 mph - N/A   Clear
9:15 PM 80.6 °F - 51.8 °F 37% 30.19 in 10.0 mi East 9.2 mph 16.1 mph N/A   Clear
9:35 PM 78.8 °F - 53.6 °F 42% 30.20 in 10.0 mi ESE 6.9 mph - N/A   Clear
9:55 PM 77.0 °F - 53.6 °F 44% 30.21 in 10.0 mi ESE 5.8 mph - N/A   Clear
10:15 PM 75.2 °F - 53.6 °F 47% 30.21 in 10.0 mi ESE 4.6 mph - N/A   Clear
10:35 PM 75.2 °F - 55.4 °F 50% 30.21 in 10.0 mi ESE 6.9 mph - N/A   Clear
10:55 PM 75.2 °F - 55.4 °F 50% 30.21 in 10.0 mi ESE 4.6 mph - N/A   Clear
11:15 PM 75.2 °F - 55.4 °F 50% 30.21 in 10.0 mi Calm Calm - N/A   Clear
11:35 PM 73.4 °F - 55.4 °F 53% 30.22 in 10.0 mi Calm Calm - N/A   Clear
11:55 PM 73.4 °F - 55.4 °F 53% 30.21 in 10.0 mi Calm Calm - N/A   Clear